Location: Unspecified
(46.6630°N, 0.0000°E)
Time: 04:59:32
(UTC+00:00)

CZ-6A DEB - Visible Passes

Search period start: 04 April 2026 00:00
Search period end: 14 April 2026 00:00
Orbit: 791 x 875 km, 89.0° (Epoch: 29 March)

Date Brightness Start Highest point End Pass type
(mag) Time Alt. Az. Time Alt. Az. Time Alt. Az.
4 Apr ? 19:30:39 10° NW 19:32:39 12° WNW 19:34:40 10° W visible
5 Apr ? 19:12:43 10° NW 19:15:48 16° WNW 19:18:56 10° WSW visible
7 Apr ? 04:40:54 10° SE 04:45:21 29° ENE 04:49:49 10° NNE visible
8 Apr ? 04:24:24 10° SE 04:28:26 23° ENE 04:32:28 10° NNE visible
9 Apr ? 04:08:06 10° ESE 04:11:32 18° ENE 04:15:00 10° NNE visible
10 Apr ? 03:52:01 10° E 03:54:40 14° ENE 03:57:19 10° NE visible
11 Apr ? 03:36:35 10° E 03:37:49 11° ENE 03:39:04 10° NE visible
13 Apr ? 04:39:23 10° SSE 04:44:23 47° E 04:49:28 10° N visible
